Wind_Speed
31 33 38 37 36 34 32 32 34 33 32 31 31 31 32 35 37 37 37 37 37 37 35 34 33 33 33 34 36 36 37 36 34 33 31 29 30 27 29 26 27 35 36
38 38 39 38 37 36 36 36 37 36 35 35 35 35 37 37 39 41 43 42 43 43 45 45 44 41 39 38 38 38 39 40 40 38 38 38 36 34 32 30 30 28 28
37 42 42 36 39 40 40 40 42 44 44 43 43 43 44 45 46 47 48 49 49 47 47 46 48 50 49 45 44 44 43 42 43 45 44 43 42 41 38 36 33 33 30
46 46 40 40 40 42 42 43 46 47 48 49 49 50 51 53 55 56 57 57 57 55 55 54 52 50 50 53 51 50 49 48 47 45 47 48 47 45 44 43 40 37 37
48 44 43 44 46 46 48 49 50 51 53 55 56 58 60 62 63 62 63 63 64 65 65 64 62 61 59 57 58 56 52 53 53 52 50 49 49 50 49 48 47 44 41
47 48 49 50 51 52 54 55 56 58 61 62 63 64 66 68 70 70 71 71 71 71 71 71 71 71 70 67 64 64 63 58 56 57 55 53 53 52 51 51 51 48 47
48 49 52 56 59 61 62 63 64 65 66 68 71 72 73 74 76 77 77 76 76 77 78 79 79 78 77 75 75 73 71 69 65 61 59 58 58 57 56 55 53 54 50
54 57 60 64 67 69 70 72 74 75 75 77 78 78 78 77 77 79 81 81 81 80 81 83 84 85 85 84 80 78 78 77 75 70 64 64 62 62 62 59 57 56 56
60 64 67 70 73 76 77 78 81 82 83 82 82 82 81 81 80 77 80 83 84 84 85 85 86 87 86 86 86 84 81 80 79 77 74 67 65 66 66 65 63 60 59
66 70 73 76 78 81 81 82 84 86 85 85 83 82 83 86 87 91 88 83 84 87 88 87 86 86 87 86 86 85 84 83 81 80 77 77 72 68 70 70 68 67 64
69 72 76 79 82 84 87 88 87 85 85 85 86 87 88 89 92 94 91 90 89 89 91 90 89 88 88 88 87 86 84 81 84 82 80 78 76 70 70 70 72 72 71
72 79 86 86 88 90 89 89 89 90 90 91 91 90 92 92 93 94 96 95 95 95 96 97 97 96 93 90 90 88 86 84 82 81 78 78 76 71 72 68 69 74 74
84 86 88 90 90 90 90 90 91 92 94 92 91 89 86 84 83 82 85 85 87 86 89 92 94 95 97 98 94 93 90 89 87 86 85 79 78 77 75 69 65 68 74
87 90 92 92 93 95 98 97 98 97 90 87 85 73 74 78 79 67 63 64 62 60 58 58 62 68 72 77 85 90 91 92 90 87 88 86 83 81 77 74 69 67 71
91 93 95 95 96 96 99 96 90 84 85 80 68 71 79 53 50 48 48 48 49 47 43 44 43 45 48 52 57 61 68 73 79 83 82 88 86 82 80 64 67 72 71
94 94 95 94 96 95 87 79 80 74 74 68 72 74 72 54 54 52 50 49 50 51 47 49 46 45 46 47 49 48 47 50 54 61 70 74 80 82 75 73 74 75 71
94 94 95 96 91 83 76 72 74 71 62 68 74 59 50 53 54 54 55 56 56 57 56 54 53 51 50 50 48 48 47 44 42 44 51 58 67 75 80 84 80 75 73
94 96 98 88 77 73 67 63 58 55 60 71 51 51 52 54 56 58 57 56 56 56 59 57 55 53 55 54 53 51 50 47 42 41 38 42 49 71 81 94 91 83 81
96 98 90 77 67 61 57 55 61 64 54 50 51 52 55 57 54 50 49 49 50 51 52 54 52 50 53 55 57 56 54 50 48 43 40 36 39 51 67 80 84 86 81
101 94 75 61 56 51 46 49 42 42 48 49 53 54 53 49 45 41 43 44 44 44 48 51 52 50 50 50 57 60 59 54 50 45 41 40 33 41 55 74 84 86 80
91 73 56 50 45 38 36 37 43 46 47 53 51 52 47 43 45 46 46 47 47 47 45 48 50 50 50 48 50 56 60 57 51 46 44 44 38 48 53 53 79 87 90
72 54 44 39 31 28 33 40 44 46 50 52 50 48 43 44 46 48 49 48 47 45 44 45 44 43 48 46 47 49 54 58 51 48 45 46 49 49 50 49 46 59 74
53 42 36 32 33 33 36 42 47 46 52 50 48 44 41 44 46 47 46 43 42 40 41 35 35 36 39 43 45 43 46 53 51 49 47 47 51 53 54 51 51 47 48
44 37 35 35 35 36 39 43 47 47 53 47 44 39 40 41 43 44 42 39 36 36 34 28 29 30 32 37 41 41 41 45 45 45 47 45 49 51 55 56 56 48 46
38 34 35 37 36 37 40 44 46 46 48 42 39 37 38 38 41 43 38 35 32 30 26 22 24 29 29 31 34 35 36 39 38 42 45 42 44 48 48 48 57 54 49
34 33 36 37 36 37 40 44 44 47 42 39 34 34 34 36 39 40 37 32 28 23 18 15 15 21 25 27 29 29 30 31 35 38 39 36 39 38 41 41 46 52 53
Wind_Direction
284 302 308 304 304 303 301 302 300 300 299 300 296 290 288 287 287 288 287 287 284 280 277 275 272 267 265 265 263 258 256 256 256 260 257 254 253 246 245 236 230 233 235
294 298 306 306 307 309 308 308 305 304 302 300 298 294 291 289 288 288 286 283 282 282 283 282 279 274 267 264 262 263 259 255 255 253 253 252 251 250 247 244 236 235 237
302 308 308 308 307 307 309 308 305 305 304 301 300 297 295 293 290 288 285 283 280 277 274 274 276 277 276 271 263 261 259 257 254 252 251 250 249 246 247 249 245 240 233
299 305 304 305 305 305 302 300 300 299 299 298 297 297 296 294 292 289 286 284 282 278 274 271 271 270 270 270 268 263 259 258 255 252 253 250 248 248 246 244 245 243 239
298 302 305 308 306 305 303 302 301 299 298 297 295 294 293 293 291 288 286 283 281 279 279 276 271 269 268 267 266 263 259 256 254 253 251 251 252 249 245 242 241 240 240
306 308 307 306 306 304 303 302 300 299 299 298 296 293 292 290 287 286 285 283 280 278 276 274 272 271 271 269 266 263 261 257 253 251 250 250 250 250 250 243 240 238 236
302 303 303 303 304 303 302 304 303 301 299 299 297 295 293 291 288 285 281 279 277 276 273 272 271 268 266 265 266 265 262 260 256 250 246 247 248 248 247 247 242 238 235
303 305 305 304 304 304 304 303 301 300 298 297 296 294 292 287 283 282 280 278 276 274 272 270 268 266 265 263 261 261 261 260 260 257 253 248 245 245 246 245 245 242 237
306 307 307 306 306 304 302 301 299 300 299 296 293 292 291 289 287 280 276 275 274 273 271 269 267 266 264 261 261 260 258 256 256 256 256 251 247 245 244 243 243 242 241
307 307 307 304 302 299 297 297 299 300 300 298 296 293 290 289 287 286 283 276 272 270 269 268 266 265 263 262 259 257 256 256 254 253 253 253 251 245 242 243 242 241 240
303 301 300 300 300 301 302 302 302 301 298 294 291 288 284 282 280 277 274 271 268 265 266 265 264 263 261 260 257 257 253 253 255 252 252 252 253 252 247 240 240 240 240
303 306 308 307 306 305 305 303 302 300 297 294 290 286 284 282 279 277 275 272 268 263 263 265 264 263 261 259 258 256 255 253 248 251 250 249 250 250 249 247 239 238 239
310 309 307 307 306 305 303 302 300 297 296 293 291 290 290 284 283 284 281 277 274 271 267 265 265 266 264 262 260 257 255 254 252 250 248 247 246 245 245 244 240 238 237
309 310 310 310 308 306 305 303 301 298 296 294 294 295 303 294 290 291 287 282 279 278 275 270 266 265 266 265 263 260 258 255 253 252 251 247 246 244 242 243 239 231 229
312 311 311 309 307 304 303 301 298 295 295 298 290 294 303 301 302 299 294 290 287 283 277 274 269 268 267 265 263 260 258 257 255 253 249 247 243 242 242 238 237 234 230
311 310 308 307 306 303 300 295 294 295 298 294 297 302 305 301 301 299 295 290 287 284 279 275 270 266 265 265 262 259 256 256 253 250 247 242 243 241 233 223 224 226 231
310 310 310 308 305 302 300 289 294 297 299 300 303 301 296 297 295 293 292 289 286 282 278 273 270 266 261 259 258 257 254 253 253 252 247 241 233 228 226 222 222 228 224
312 311 310 309 304 300 297 294 293 299 304 305 302 301 300 299 298 296 293 289 285 281 278 273 267 263 258 255 253 252 252 250 246 250 250 243 232 227 223 222 225 227 225
313 313 313 310 304 300 297 292 295 302 302 305 305 305 304 303 302 299 296 292 287 281 276 272 268 260 254 249 248 248 248 246 245 243 248 243 233 224 227 224 221 223 227
315 315 313 309 304 301 300 305 306 308 311 310 310 309 308 307 306 302 297 295 292 289 279 270 264 260 255 249 243 244 244 242 243 241 240 233 228 233 227 226 217 221 218
316 315 313 309 309 310 309 313 315 314 313 314 314 314 313 312 307 304 301 296 292 288 286 276 264 257 253 249 246 241 240 241 237 238 233 228 217 217 232 235 228 228 223
317 316 315 312 317 315 314 318 317 317 319 320 319 316 314 311 310 308 305 300 295 291 288 277 265 255 250 246 243 242 239 239 236 235 233 228 221 216 224 226 231 239 239
317 314 316 318 316 312 314 317 320 319 323 322 319 317 315 316 316 314 311 304 297 294 294 277 255 251 248 245 243 242 239 235 233 230 230 229 228 225 224 228 235 238 234
314 311 312 313 313 312 313 314 319 322 325 322 319 318 321 324 326 325 322 313 302 298 296 279 247 246 248 245 242 241 243 233 228 225 229 231 228 230 234 232 236 238 240
311 307 309 310 312 308 312 315 320 324 325 322 321 321 326 331 331 331 328 326 315 307 299 283 254 241 242 243 239 242 241 226 219 220 226 231 232 231 237 240 233 235 238
309 308 313 313 307 307 312 318 320 327 327 325 322 323 328 333 334 336 337 336 330 319 305 290 265 245 236 233 238 238 222 212 210 217 224 230 230 235 237 237 234 231 236
Height
5792 5789 5785 5782 5777 5773 5770 5767 5764 5761 5759 5757 5755 5753 5750 5748 5746 5744 5743 5742 5741 5741 5741 5741 5741 5740 5740 5740 5740 5743 5745 5744 5744 5743 5746 5751 5754 5755 5756 5757 5760 5763 5765
5787 5782 5777 5772 5768 5764 5762 5758 5756 5753 5750 5748 5747 5745 5742 5741 5738 5736 5733 5733 5732 5732 5731 5730 5731 5732 5733 5732 5732 5731 5733 5737 5738 5739 5741 5743 5745 5749 5750 5751 5755 5756 5757
5777 5773 5769 5764 5762 5757 5754 5750 5746 5743 5740 5739 5736 5733 5731 5729 5727 5726 5724 5722 5721 5721 5720 5719 5718 5718 5719 5723 5724 5723 5724 5725 5727 5730 5733 5735 5738 5741 5741 5744 5747 5749 5750
5768 5764 5760 5757 5754 5749 5746 5743 5738 5734 5730 5726 5724 5721 5719 5716 5714 5713 5711 5709 5707 5707 5706 5705 5706 5706 5706 5706 5709 5712 5713 5714 5716 5718 5720 5723 5726 5729 5733 5735 5738 5740 5741
5757 5753 5750 5747 5743 5739 5736 5732 5729 5725 5720 5715 5711 5708 5704 5700 5696 5695 5693 5692 5691 5690 5689 5689 5689 5690 5691 5692 5691 5694 5698 5701 5703 5706 5709 5710 5713 5717 5721 5725 5728 5730 5733
5746 5742 5739 5734 5730 5727 5723 5719 5715 5711 5705 5701 5697 5693 5689 5684 5679 5677 5673 5670 5670 5669 5669 5670 5671 5671 5672 5674 5676 5677 5679 5683 5687 5691 5694 5698 5701 5704 5708 5713 5717 5720 5723
5738 5734 5728 5722 5716 5712 5706 5701 5697 5693 5689 5684 5679 5675 5669 5663 5659 5655 5653 5651 5649 5648 5646 5645 5645 5648 5650 5652 5653 5656 5660 5662 5667 5672 5676 5681 5685 5689 5694 5700 5704 5709 5712
5727 5722 5716 5709 5702 5696 5689 5683 5678 5673 5668 5661 5655 5651 5648 5646 5639 5632 5628 5626 5625 5624 5621 5620 5619 5620 5622 5626 5631 5634 5637 5641 5643 5649 5656 5662 5668 5673 5678 5684 5691 5697 5701
5715 5708 5701 5694 5686 5679 5673 5666 5658 5650 5643 5637 5628 5621 5617 5615 5611 5611 5607 5602 5600 5598 5594 5592 5591 5593 5595 5598 5602 5607 5613 5618 5621 5625 5630 5639 5647 5654 5660 5667 5673 5680 5686
5701 5694 5686 5679 5672 5664 5656 5648 5639 5630 5622 5613 5607 5598 5590 5582 5578 5579 5578 5577 5574 5571 5567 5564 5562 5563 5566 5570 5573 5581 5586 5592 5598 5602 5607 5613 5623 5633 5641 5648 5656 5662 5669
5692 5684 5675 5664 5653 5643 5633 5623 5613 5603 5593 5585 5577 5571 5564 5557 5547 5539 5542 5545 5545 5543 5537 5534 5532 5532 5535 5540 5545 5550 5559 5567 5570 5579 5585 5591 5599 5608 5618 5629 5637 5644 5651
5678 5664 5648 5639 5629 5617 5608 5598 5586 5575 5566 5556 5546 5537 5529 5523 5518 5510 5502 5505 5505 5512 5508 5503 5501 5502 5506 5510 5515 5522 5529 5538 5548 5551 5559 5568 5578 5586 5593 5604 5615 5624 5632
5652 5642 5631 5619 5607 5596 5585 5574 5564 5554 5543 5531 5519 5510 5501 5491 5484 5480 5473 5469 5469 5477 5476 5476 5474 5472 5472 5476 5484 5492 5502 5509 5518 5525 5534 5543 5554 5562 5572 5581 5592 5601 5611
5635 5621 5607 5592 5579 5565 5556 5545 5533 5523 5513 5504 5495 5487 5479 5468 5460 5453 5448 5444 5446 5448 5448 5451 5450 5447 5445 5448 5453 5463 5472 5479 5487 5498 5507 5520 5528 5541 5551 5560 5570 5581 5590
5612 5601 5587 5573 5560 5543 5530 5520 5507 5498 5492 5484 5476 5469 5462 5452 5445 5439 5434 5429 5426 5429 5434 5433 5434 5432 5431 5430 5433 5440 5445 5450 5458 5467 5479 5489 5504 5517 5529 5539 5547 5557 5568
5595 5582 5570 5554 5538 5522 5509 5496 5489 5481 5474 5467 5460 5453 5445 5439 5433 5428 5423 5420 5416 5413 5416 5415 5419 5420 5419 5418 5419 5424 5429 5432 5436 5442 5451 5464 5479 5494 5507 5518 5524 5535 5547
5576 5560 5545 5529 5513 5500 5489 5479 5473 5466 5458 5452 5445 5437 5431 5427 5422 5416 5410 5406 5402 5398 5398 5400 5401 5404 5406 5407 5408 5411 5415 5420 5424 5428 5433 5442 5454 5467 5483 5493 5503 5515 5527
5556 5539 5523 5506 5491 5480 5471 5464 5458 5451 5445 5438 5431 5424 5418 5413 5407 5400 5394 5389 5384 5381 5377 5379 5381 5386 5387 5391 5394 5397 5400 5406 5413 5415 5421 5427 5437 5445 5457 5469 5483 5498 5507
5532 5517 5499 5484 5472 5463 5456 5451 5446 5439 5432 5426 5419 5411 5404 5397 5391 5384 5377 5372 5367 5364 5360 5358 5361 5366 5367 5372 5377 5382 5386 5392 5399 5405 5410 5417 5422 5429 5438 5448 5463 5476 5485
5509 5493 5479 5467 5457 5449 5445 5441 5434 5428 5421 5415 5406 5397 5389 5382 5376 5370 5364 5359 5353 5348 5344 5341 5342 5345 5348 5354 5358 5364 5370 5377 5385 5394 5400 5407 5413 5418 5423 5429 5444 5456 5466
5489 5476 5465 5454 5446 5440 5437 5432 5426 5419 5412 5404 5394 5385 5377 5370 5363 5356 5350 5344 5338 5333 5329 5325 5325 5327 5332 5337 5341 5347 5353 5361 5372 5381 5389 5396 5404 5409 5410 5417 5427 5435 5446
5473 5462 5453 5446 5439 5435 5431 5424 5418 5411 5402 5392 5383 5375 5367 5360 5352 5344 5335 5327 5321 5316 5313 5308 5308 5311 5315 5321 5326 5331 5339 5347 5358 5369 5376 5384 5393 5397 5401 5408 5415 5421 5429
5459 5452 5446 5440 5435 5430 5424 5418 5410 5402 5393 5382 5373 5365 5359 5351 5342 5332 5322 5313 5306 5301 5296 5292 5293 5297 5301 5307 5312 5320 5325 5333 5346 5355 5365 5373 5379 5386 5392 5398 5405 5411 5417
5449 5443 5438 5433 5429 5424 5418 5411 5403 5394 5384 5374 5365 5358 5351 5342 5332 5321 5311 5302 5295 5289 5284 5281 5283 5287 5291 5295 5301 5307 5314 5323 5334 5344 5353 5361 5368 5375 5382 5388 5394 5400 5407
5442 5436 5432 5427 5422 5416 5410 5403 5396 5387 5377 5366 5357 5351 5344 5335 5326 5315 5304 5295 5287 5281 5276 5274 5274 5279 5283 5286 5292 5299 5305 5312 5324 5333 5342 5351 5357 5364 5370 5375 5382 5389 5395
5433 5429 5424 5419 5414 5409 5403 5396 5388 5380 5371 5361 5352 5345 5339 5331 5322 5311 5300 5291 5282 5275 5271 5269 5269 5272 5276 5280 5285 5291 5296 5307 5317 5326 5334 5343 5347 5354 5359 5364 5369 5376 5383